QPF
0.00 0.00 0.00 0.00 0.00 0.01 0.01 0.02 0.02 0.03 0.03 0.04 0.04 0.04 0.03 0.04 0.03 0.03 0.04 0.05 0.05 0.05 0.06 0.05 0.05 0.04 0.04 0.05 0.05 0.04 0.05 0.04 0.05 0.05 0.03 0.02 0.03 0.05 0.04 0.03 0.04 0.03 0.04
0.00 0.00 0.00 0.00 0.01 0.01 0.01 0.02 0.02 0.02 0.02 0.04 0.04 0.04 0.04 0.03 0.03 0.04 0.04 0.04 0.05 0.05 0.05 0.05 0.05 0.04 0.04 0.05 0.06 0.05 0.05 0.05 0.05 0.05 0.05 0.05 0.05 0.04 0.02 0.03 0.04 0.03 0.03
0.00 0.00 0.00 0.00 0.01 0.02 0.02 0.02 0.02 0.02 0.03 0.03 0.03 0.03 0.04 0.03 0.04 0.04 0.04 0.05 0.05 0.05 0.05 0.05 0.04 0.04 0.04 0.05 0.06 0.06 0.06 0.06 0.06 0.06 0.06 0.06 0.06 0.05 0.04 0.03 0.02 0.02 0.02
0.01 0.00 0.01 0.01 0.02 0.03 0.03 0.03 0.02 0.03 0.03 0.03 0.02 0.03 0.03 0.03 0.03 0.04 0.05 0.05 0.05 0.06 0.06 0.06 0.06 0.04 0.05 0.06 0.06 0.08 0.07 0.08 0.08 0.08 0.07 0.07 0.05 0.06 0.05 0.03 0.02 0.02 0.02
0.01 0.01 0.01 0.01 0.02 0.03 0.03 0.01 0.01 0.02 0.02 0.02 0.02 0.02 0.02 0.02 0.03 0.05 0.05 0.06 0.05 0.05 0.04 0.05 0.05 0.06 0.07 0.08 0.08 0.10 0.09 0.09 0.09 0.09 0.08 0.06 0.06 0.06 0.05 0.04 0.04 0.03 0.03
0.02 0.01 0.01 0.01 0.02 0.02 0.02 0.01 0.01 0.01 0.01 0.02 0.02 0.02 0.03 0.03 0.04 0.05 0.05 0.05 0.04 0.04 0.05 0.05 0.05 0.04 0.05 0.05 0.06 0.07 0.07 0.09 0.09 0.08 0.06 0.05 0.05 0.05 0.06 0.05 0.05 0.04 0.04
0.05 0.03 0.01 0.01 0.01 0.01 0.02 0.01 0.01 0.02 0.02 0.02 0.02 0.03 0.03 0.03 0.03 0.03 0.03 0.04 0.03 0.04 0.05 0.05 0.04 0.03 0.03 0.03 0.05 0.05 0.05 0.05 0.05 0.05 0.05 0.05 0.05 0.05 0.06 0.06 0.05 0.04 0.05
0.03 0.05 0.04 0.02 0.01 0.01 0.01 0.01 0.02 0.03 0.03 0.03 0.02 0.02 0.02 0.02 0.02 0.03 0.03 0.03 0.03 0.05 0.06 0.07 0.05 0.04 0.03 0.03 0.05 0.04 0.04 0.05 0.04 0.03 0.05 0.05 0.05 0.05 0.04 0.05 0.05 0.04 0.05
0.01 0.02 0.03 0.04 0.01 0.01 0.02 0.03 0.04 0.05 0.04 0.04 0.03 0.03 0.04 0.04 0.04 0.06 0.05 0.04 0.05 0.07 0.08 0.08 0.07 0.06 0.05 0.05 0.05 0.05 0.06 0.06 0.05 0.04 0.05 0.06 0.05 0.03 0.03 0.02 0.03 0.04 0.04
0.01 0.01 0.01 0.02 0.02 0.03 0.03 0.04 0.05 0.05 0.05 0.04 0.03 0.03 0.05 0.06 0.06 0.07 0.07 0.07 0.08 0.08 0.08 0.09 0.08 0.07 0.07 0.07 0.07 0.05 0.06 0.07 0.06 0.06 0.06 0.06 0.06 0.05 0.04 0.03 0.03 0.04 0.04
0.02 0.02 0.02 0.02 0.03 0.03 0.03 0.04 0.06 0.05 0.04 0.03 0.03 0.03 0.02 0.03 0.06 0.07 0.06 0.07 0.08 0.08 0.07 0.08 0.07 0.06 0.06 0.07 0.07 0.05 0.06 0.05 0.05 0.06 0.07 0.06 0.06 0.07 0.06 0.04 0.03 0.03 0.04
0.02 0.02 0.02 0.04 0.05 0.05 0.05 0.06 0.06 0.05 0.04 0.03 0.03 0.02 0.02 0.03 0.05 0.08 0.07 0.06 0.06 0.06 0.06 0.06 0.06 0.04 0.05 0.06 0.06 0.05 0.06 0.07 0.06 0.06 0.07 0.06 0.06 0.06 0.05 0.05 0.05 0.04 0.04
0.02 0.01 0.02 0.03 0.03 0.04 0.04 0.04 0.05 0.06 0.05 0.05 0.04 0.03 0.03 0.03 0.03 0.04 0.04 0.05 0.05 0.05 0.06 0.08 0.06 0.05 0.05 0.06 0.06 0.05 0.05 0.06 0.07 0.08 0.07 0.05 0.05 0.05 0.04 0.04 0.04 0.04 0.03
0.04 0.02 0.02 0.03 0.03 0.03 0.03 0.04 0.04 0.04 0.05 0.04 0.03 0.03 0.03 0.02 0.02 0.03 0.03 0.04 0.04 0.04 0.04 0.05 0.06 0.05 0.06 0.06 0.05 0.04 0.04 0.04 0.06 0.07 0.07 0.06 0.05 0.04 0.04 0.04 0.04 0.05 0.05
0.05 0.04 0.04 0.04 0.04 0.03 0.03 0.02 0.02 0.02 0.03 0.03 0.03 0.02 0.02 0.02 0.03 0.03 0.03 0.02 0.03 0.03 0.03 0.04 0.05 0.05 0.06 0.05 0.04 0.04 0.04 0.05 0.05 0.05 0.06 0.06 0.06 0.03 0.03 0.03 0.04 0.06 0.05
0.04 0.04 0.04 0.05 0.04 0.03 0.03 0.02 0.02 0.02 0.02 0.02 0.02 0.02 0.02 0.02 0.03 0.04 0.04 0.03 0.03 0.03 0.04 0.05 0.05 0.04 0.03 0.04 0.03 0.04 0.06 0.06 0.05 0.05 0.05 0.06 0.05 0.04 0.02 0.02 0.04 0.05 0.05
0.03 0.04 0.04 0.04 0.04 0.04 0.03 0.02 0.02 0.02 0.02 0.02 0.02 0.02 0.02 0.02 0.03 0.03 0.03 0.04 0.03 0.04 0.05 0.05 0.04 0.04 0.04 0.04 0.02 0.02 0.05 0.06 0.06 0.06 0.06 0.05 0.04 0.04 0.03 0.03 0.03 0.03 0.03
0.04 0.04 0.05 0.06 0.05 0.04 0.04 0.04 0.03 0.02 0.02 0.02 0.02 0.02 0.02 0.02 0.03 0.03 0.03 0.04 0.04 0.04 0.04 0.05 0.04 0.04 0.03 0.03 0.02 0.02 0.03 0.05 0.04 0.04 0.05 0.05 0.05 0.05 0.05 0.05 0.04 0.04 0.04
0.04 0.05 0.07 0.09 0.09 0.04 0.03 0.03 0.04 0.04 0.03 0.03 0.02 0.02 0.03 0.03 0.03 0.03 0.03 0.04 0.05 0.05 0.04 0.04 0.05 0.05 0.04 0.03 0.03 0.03 0.03 0.04 0.03 0.03 0.04 0.04 0.04 0.06 0.08 0.08 0.08 0.08 0.07
0.04 0.04 0.07 0.12 0.10 0.06 0.04 0.03 0.03 0.03 0.03 0.03 0.02 0.03 0.04 0.04 0.04 0.04 0.04 0.03 0.04 0.05 0.06 0.06 0.05 0.06 0.05 0.05 0.03 0.03 0.03 0.03 0.03 0.05 0.06 0.04 0.04 0.06 0.08 0.11 0.12 0.10 0.09
0.05 0.07 0.08 0.07 0.07 0.05 0.04 0.03 0.03 0.03 0.04 0.03 0.02 0.03 0.04 0.05 0.05 0.05 0.05 0.03 0.03 0.03 0.04 0.05 0.05 0.06 0.04 0.05 0.04 0.03 0.03 0.03 0.05 0.06 0.07 0.06 0.04 0.03 0.04 0.08 0.12 0.11 0.09
0.04 0.05 0.06 0.05 0.05 0.04 0.03 0.02 0.03 0.03 0.03 0.02 0.02 0.02 0.04 0.05 0.04 0.06 0.05 0.04 0.03 0.03 0.04 0.04 0.05 0.05 0.05 0.04 0.04 0.04 0.04 0.04 0.05 0.06 0.07 0.06 0.05 0.04 0.04 0.04 0.06 0.08 0.09
0.02 0.04 0.06 0.07 0.07 0.07 0.04 0.04 0.04 0.03 0.03 0.03 0.03 0.03 0.03 0.03 0.04 0.05 0.05 0.04 0.04 0.03 0.04 0.04 0.03 0.04 0.04 0.02 0.02 0.03 0.03 0.04 0.03 0.04 0.05 0.05 0.06 0.04 0.04 0.04 0.05 0.07 0.07
0.02 0.02 0.03 0.05 0.06 0.06 0.05 0.06 0.05 0.05 0.04 0.04 0.03 0.03 0.04 0.04 0.05 0.04 0.05 0.05 0.04 0.03 0.03 0.03 0.03 0.03 0.03 0.03 0.02 0.02 0.02 0.03 0.03 0.03 0.04 0.04 0.05 0.04 0.03 0.04 0.05 0.06 0.08
0.02 0.02 0.02 0.03 0.03 0.04 0.05 0.05 0.05 0.05 0.04 0.04 0.03 0.04 0.05 0.06 0.06 0.06 0.06 0.07 0.05 0.04 0.03 0.03 0.03 0.04 0.05 0.04 0.04 0.05 0.05 0.04 0.03 0.04 0.03 0.03 0.03 0.03 0.03 0.04 0.05 0.06 0.07
0.02 0.03 0.02 0.02 0.03 0.03 0.03 0.03 0.03 0.04 0.04 0.03 0.03 0.03 0.04 0.06 0.07 0.07 0.07 0.07 0.07 0.06 0.04 0.03 0.03 0.04 0.04 0.05 0.06 0.06 0.07 0.07 0.06 0.07 0.06 0.04 0.03 0.03 0.04 0.05 0.06 0.07 0.07
MSLP
1001.58 1002.44 1003.18 1003.81 1004.34 1004.84 1005.33 1005.86 1006.47 1007.15 1007.87 1008.60 1009.30 1009.92 1010.43 1010.83 1011.12 1011.32 1011.47 1011.61 1011.77 1011.96 1012.19 1012.48 1012.80 1013.13 1013.48 1013.82 1014.15 1014.47 1014.78 1015.09 1015.38 1015.66 1015.91 1016.14 1016.32 1016.45 1016.53 1016.56 1016.55 1016.52 1016.49
1001.16 1002.13 1002.97 1003.67 1004.24 1004.73 1005.19 1005.69 1006.25 1006.89 1007.61 1008.36 1009.11 1009.80 1010.39 1010.87 1011.23 1011.50 1011.70 1011.86 1012.02 1012.21 1012.44 1012.70 1012.99 1013.30 1013.62 1013.94 1014.25 1014.56 1014.86 1015.17 1015.47 1015.77 1016.04 1016.28 1016.47 1016.59 1016.64 1016.63 1016.57 1016.47 1016.37
1000.55 1001.65 1002.61 1003.42 1004.07 1004.60 1005.08 1005.55 1006.07 1006.68 1007.37 1008.12 1008.87 1009.60 1010.24 1010.79 1011.22 1011.54 1011.80 1012.01 1012.21 1012.43 1012.66 1012.92 1013.20 1013.49 1013.77 1014.05 1014.32 1014.59 1014.87 1015.16 1015.46 1015.77 1016.06 1016.31 1016.52 1016.65 1016.69 1016.66 1016.56 1016.43 1016.28
999.72 1000.94 1002.05 1003.00 1003.77 1004.39 1004.92 1005.41 1005.93 1006.52 1007.17 1007.89 1008.62 1009.34 1010.00 1010.57 1011.05 1011.43 1011.75 1012.02 1012.28 1012.54 1012.81 1013.10 1013.38 1013.65 1013.90 1014.14 1014.37 1014.59 1014.83 1015.09 1015.38 1015.68 1015.98 1016.25 1016.47 1016.62 1016.67 1016.64 1016.53 1016.37 1016.19
998.67 999.99 1001.24 1002.35 1003.28 1004.03 1004.67 1005.23 1005.78 1006.37 1007.00 1007.68 1008.37 1009.06 1009.70 1010.26 1010.75 1011.16 1011.53 1011.86 1012.19 1012.51 1012.84 1013.17 1013.48 1013.75 1014.00 1014.21 1014.39 1014.58 1014.77 1015.00 1015.26 1015.55 1015.85 1016.13 1016.36 1016.53 1016.60 1016.58 1016.48 1016.32 1016.12
997.47 998.86 1000.22 1001.47 1002.55 1003.48 1004.25 1004.93 1005.56 1006.18 1006.82 1007.47 1008.13 1008.76 1009.35 1009.88 1010.36 1010.78 1011.17 1011.55 1011.93 1012.32 1012.72 1013.11 1013.46 1013.77 1014.03 1014.23 1014.40 1014.55 1014.71 1014.90 1015.13 1015.40 1015.69 1015.98 1016.23 1016.41 1016.50 1016.50 1016.41 1016.26 1016.06
996.26 997.63 999.05 1000.40 1001.63 1002.71 1003.64 1004.46 1005.20 1005.90 1006.58 1007.24 1007.87 1008.46 1009.00 1009.48 1009.92 1010.32 1010.71 1011.12 1011.55 1012.00 1012.46 1012.92 1013.34 1013.70 1013.99 1014.21 1014.38 1014.52 1014.66 1014.82 1015.03 1015.28 1015.56 1015.85 1016.10 1016.29 1016.40 1016.41 1016.34 1016.20 1016.01
995.20 996.49 997.87 999.26 1000.57 1001.77 1002.84 1003.81 1004.68 1005.49 1006.24 1006.94 1007.57 1008.15 1008.65 1009.09 1009.48 1009.85 1010.23 1010.64 1011.10 1011.59 1012.12 1012.64 1013.13 1013.55 1013.89 1014.15 1014.34 1014.49 1014.63 1014.78 1014.98 1015.21 1015.47 1015.74 1015.99 1016.19 1016.31 1016.34 1016.29 1016.16 1015.98
994.50 995.60 996.87 998.19 999.50 1000.74 1001.91 1002.99 1003.99 1004.91 1005.76 1006.53 1007.22 1007.81 1008.30 1008.72 1009.08 1009.42 1009.78 1010.19 1010.65 1011.18 1011.74 1012.32 1012.87 1013.35 1013.76 1014.07 1014.30 1014.47 1014.62 1014.77 1014.95 1015.17 1015.41 1015.67 1015.91 1016.11 1016.24 1016.28 1016.25 1016.14 1015.98
994.30 995.16 996.21 997.37 998.57 999.76 1000.94 1002.07 1003.16 1004.19 1005.14 1006.01 1006.77 1007.42 1007.95 1008.38 1008.74 1009.07 1009.41 1009.81 1010.27 1010.80 1011.39 1012.01 1012.60 1013.14 1013.60 1013.96 1014.24 1014.45 1014.61 1014.77 1014.94 1015.14 1015.37 1015.61 1015.84 1016.03 1016.17 1016.23 1016.22 1016.14 1016.00
994.72 995.29 996.05 996.95 997.93 998.98 1000.06 1001.16 1002.27 1003.37 1004.41 1005.38 1006.24 1006.97 1007.57 1008.04 1008.43 1008.78 1009.12 1009.51 1009.97 1010.50 1011.10 1011.73 1012.35 1012.93 1013.43 1013.83 1014.15 1014.38 1014.56 1014.72 1014.89 1015.08 1015.29 1015.51 1015.73 1015.92 1016.07 1016.16 1016.18 1016.13 1016.03
995.75 996.02 996.46 997.03 997.72 998.52 999.42 1000.40 1001.46 1002.55 1003.64 1004.68 1005.63 1006.46 1007.14 1007.70 1008.14 1008.52 1008.89 1009.28 1009.73 1010.26 1010.85 1011.48 1012.11 1012.70 1013.22 1013.66 1013.99 1014.25 1014.44 1014.60 1014.76 1014.94 1015.13 1015.35 1015.56 1015.76 1015.93 1016.05 1016.11 1016.11 1016.06
997.30 997.30 997.42 997.65 998.00 998.50 999.14 999.92 1000.85 1001.87 1002.94 1004.01 1005.02 1005.92 1006.69 1007.32 1007.83 1008.26 1008.66 1009.06 1009.52 1010.03 1010.60 1011.22 1011.84 1012.43 1012.96 1013.40 1013.75 1014.02 1014.22 1014.38 1014.54 1014.71 1014.90 1015.11 1015.33 1015.54 1015.74 1015.89 1016.01 1016.07 1016.08
999.20 999.00 998.84 998.76 998.78 998.95 999.29 999.83 1000.55 1001.43 1002.42 1003.45 1004.46 1005.40 1006.23 1006.92 1007.49 1007.97 1008.40 1008.83 1009.28 1009.78 1010.33 1010.92 1011.53 1012.10 1012.62 1013.06 1013.41 1013.69 1013.90 1014.07 1014.23 1014.40 1014.60 1014.81 1015.05 1015.29 1015.52 1015.72 1015.88 1016.00 1016.07
1001.26 1000.94 1000.59 1000.25 999.99 999.86 999.91 1000.17 1000.66 1001.34 1002.18 1003.11 1004.07 1004.99 1005.83 1006.55 1007.16 1007.67 1008.13 1008.56 1009.01 1009.49 1010.02 1010.58 1011.15 1011.71 1012.21 1012.65 1013.01 1013.29 1013.51 1013.70 1013.88 1014.07 1014.28 1014.52 1014.78 1015.05 1015.31 1015.55 1015.76 1015.93 1016.05
1003.27 1002.92 1002.48 1001.99 1001.52 1001.16 1000.95 1000.96 1001.20 1001.66 1002.31 1003.09 1003.93 1004.78 1005.57 1006.27 1006.88 1007.40 1007.86 1008.30 1008.73 1009.20 1009.70 1010.23 1010.78 1011.30 1011.80 1012.23 1012.59 1012.90 1013.15 1013.36 1013.57 1013.80 1014.04 1014.31 1014.60 1014.90 1015.19 1015.46 1015.70 1015.90 1016.05
1005.08 1004.79 1004.34 1003.81 1003.24 1002.72 1002.34 1002.13 1002.15 1002.39 1002.83 1003.42 1004.11 1004.83 1005.54 1006.18 1006.76 1007.25 1007.70 1008.12 1008.54 1008.98 1009.45 1009.95 1010.47 1010.98 1011.46 1011.89 1012.27 1012.60 1012.89 1013.14 1013.40 1013.66 1013.94 1014.24 1014.56 1014.89 1015.20 1015.49 1015.73 1015.93 1016.08
1006.59 1006.42 1006.06 1005.56 1004.99 1004.43 1003.93 1003.58 1003.42 1003.47 1003.71 1004.12 1004.64 1005.21 1005.80 1006.36 1006.87 1007.33 1007.74 1008.13 1008.53 1008.94 1009.38 1009.86 1010.35 1010.84 1011.31 1011.75 1012.15 1012.51 1012.83 1013.13 1013.42 1013.73 1014.04 1014.37 1014.71 1015.05 1015.36 1015.64 1015.87 1016.04 1016.15
1007.83 1007.79 1007.56 1007.17 1006.67 1006.13 1005.61 1005.19 1004.91 1004.81 1004.89 1005.12 1005.48 1005.92 1006.39 1006.85 1007.29 1007.69 1008.07 1008.43 1008.80 1009.19 1009.60 1010.04 1010.51 1010.98 1011.44 1011.88 1012.29 1012.67 1013.02 1013.35 1013.68 1014.00 1014.34 1014.69 1015.03 1015.35 1015.64 1015.89 1016.07 1016.19 1016.25
1008.86 1008.95 1008.86 1008.60 1008.20 1007.73 1007.24 1006.81 1006.47 1006.28 1006.24 1006.34 1006.57 1006.88 1007.25 1007.63 1008.01 1008.37 1008.72 1009.05 1009.40 1009.76 1010.14 1010.56 1010.99 1011.44 1011.88 1012.31 1012.71 1013.09 1013.45 1013.78 1014.12 1014.44 1014.77 1015.10 1015.42 1015.71 1015.95 1016.15 1016.27 1016.33 1016.32
1009.81 1009.97 1009.99 1009.85 1009.57 1009.19 1008.76 1008.34 1007.99 1007.75 1007.64 1007.65 1007.79 1008.02 1008.32 1008.64 1008.98 1009.31 1009.64 1009.96 1010.29 1010.63 1010.99 1011.37 1011.77 1012.18 1012.59 1012.98 1013.36 1013.71 1014.04 1014.35 1014.65 1014.94 1015.23 1015.51 1015.77 1016.00 1016.18 1016.31 1016.38 1016.37 1016.30
1010.78 1010.98 1011.06 1010.99 1010.79 1010.49 1010.11 1009.73 1009.39 1009.13 1008.98 1008.95 1009.04 1009.22 1009.47 1009.77 1010.09 1010.41 1010.73 1011.05 1011.37 1011.69 1012.03 1012.38 1012.74 1013.10 1013.46 1013.80 1014.12 1014.41 1014.68 1014.93 1015.16 1015.38 1015.59 1015.78 1015.96 1016.11 1016.23 1016.29 1016.30 1016.24 1016.12
1011.87 1012.04 1012.12 1012.08 1011.92 1011.65 1011.32 1010.96 1010.63 1010.37 1010.21 1010.15 1010.21 1010.37 1010.61 1010.89 1011.21 1011.53 1011.85 1012.17 1012.48 1012.79 1013.11 1013.42 1013.73 1014.04 1014.33 1014.61 1014.85 1015.06 1015.24 1015.40 1015.53 1015.64 1015.75 1015.84 1015.92 1015.99 1016.02 1016.03 1015.99 1015.90 1015.77
1013.10 1013.20 1013.23 1013.16 1012.99 1012.72 1012.39 1012.04 1011.71 1011.45 1011.27 1011.21 1011.25 1011.40 1011.62 1011.90 1012.21 1012.53 1012.85 1013.17 1013.47 1013.77 1014.06 1014.33 1014.60 1014.85 1015.08 1015.27 1015.43 1015.55 1015.63 1015.67 1015.69 1015.69 1015.67 1015.66 1015.64 1015.61 1015.58 1015.54 1015.47 1015.38 1015.26
1014.41 1014.41 1014.36 1014.23 1014.01 1013.71 1013.36 1012.99 1012.65 1012.38 1012.19 1012.11 1012.13 1012.25 1012.45 1012.71 1013.00 1013.31 1013.62 1013.92 1014.21 1014.48 1014.74 1014.99 1015.21 1015.41 1015.58 1015.71 1015.79 1015.82 1015.80 1015.74 1015.65 1015.53 1015.41 1015.28 1015.17 1015.07 1014.99 1014.91 1014.84 1014.76 1014.67
1015.67 1015.59 1015.45 1015.24 1014.96 1014.62 1014.24 1013.85 1013.49 1013.20 1012.98 1012.87 1012.86 1012.94 1013.10 1013.31 1013.56 1013.83 1014.10 1014.37 1014.63 1014.87 1015.10 1015.32 1015.51 1015.67 1015.80 1015.88 1015.90 1015.87 1015.78 1015.64 1015.46 1015.26 1015.05 1014.85 1014.66 1014.51 1014.39 1014.30 1014.23 1014.18 1014.13
Thickness
5812 5811 5809 5805 5800 5794 5789 5785 5779 5775 5772 5767 5763 5760 5759 5759 5759 5758 5757 5756 5754 5753 5751 5750 5749 5748 5747 5746 5744 5743 5741 5741 5741 5738 5736 5740 5743 5741 5741 5741 5739 5738 5738
5806 5804 5803 5799 5794 5789 5785 5781 5776 5772 5768 5765 5763 5760 5759 5757 5756 5755 5754 5753 5751 5750 5749 5747 5746 5746 5745 5743 5742 5740 5737 5737 5738 5734 5729 5727 5730 5735 5740 5738 5737 5736 5736
5801 5799 5796 5794 5790 5785 5781 5778 5773 5769 5766 5764 5761 5758 5755 5753 5751 5750 5749 5749 5749 5747 5747 5745 5745 5744 5743 5740 5739 5738 5735 5732 5734 5734 5729 5722 5719 5724 5731 5733 5733 5733 5732
5800 5797 5794 5790 5787 5783 5780 5776 5770 5766 5763 5761 5758 5753 5749 5746 5747 5747 5746 5746 5746 5745 5744 5743 5743 5741 5740 5739 5737 5736 5735 5732 5729 5730 5731 5729 5727 5720 5718 5724 5729 5729 5728
5800 5796 5792 5788 5785 5782 5777 5772 5767 5762 5760 5758 5755 5751 5748 5746 5746 5745 5743 5742 5743 5742 5742 5741 5740 5738 5737 5736 5735 5734 5732 5731 5728 5726 5726 5726 5726 5725 5718 5714 5718 5722 5725
5797 5793 5790 5786 5781 5778 5773 5768 5762 5757 5755 5753 5751 5747 5745 5743 5741 5739 5738 5738 5738 5739 5739 5738 5737 5736 5734 5733 5732 5731 5729 5728 5727 5726 5724 5722 5720 5719 5717 5713 5713 5714 5718
5791 5786 5783 5778 5774 5772 5768 5764 5757 5753 5751 5749 5747 5744 5742 5740 5737 5736 5734 5734 5734 5734 5735 5735 5733 5732 5731 5731 5730 5728 5726 5725 5724 5723 5722 5722 5721 5721 5718 5714 5711 5711 5714
5786 5780 5777 5773 5770 5767 5764 5760 5754 5750 5748 5745 5742 5741 5739 5737 5735 5734 5733 5732 5732 5733 5733 5732 5731 5730 5729 5728 5727 5725 5724 5723 5721 5721 5719 5718 5719 5719 5717 5713 5709 5705 5707
5778 5774 5771 5768 5765 5762 5759 5756 5751 5747 5744 5742 5739 5737 5735 5734 5732 5731 5731 5731 5730 5731 5730 5729 5728 5727 5726 5725 5724 5722 5721 5720 5718 5717 5716 5715 5715 5716 5715 5713 5710 5704 5699
5770 5769 5767 5764 5762 5759 5755 5752 5749 5744 5741 5739 5736 5734 5732 5731 5730 5728 5727 5727 5727 5727 5726 5725 5724 5724 5723 5722 5720 5719 5718 5716 5715 5714 5713 5712 5712 5712 5711 5710 5709 5707 5702
5763 5762 5761 5759 5756 5754 5750 5746 5743 5740 5737 5735 5733 5731 5729 5728 5727 5726 5725 5725 5724 5724 5723 5722 5720 5719 5719 5718 5716 5715 5714 5712 5711 5710 5709 5708 5708 5707 5706 5706 5705 5703 5701
5758 5758 5755 5752 5749 5745 5743 5740 5738 5735 5733 5732 5729 5727 5726 5724 5723 5722 5722 5721 5720 5720 5719 5718 5716 5715 5715 5713 5712 5710 5710 5708 5707 5706 5705 5704 5704 5702 5701 5700 5700 5699 5698
5751 5750 5747 5744 5741 5739 5736 5734 5733 5731 5729 5727 5725 5723 5721 5720 5719 5718 5718 5718 5717 5716 5714 5713 5711 5711 5710 5709 5708 5706 5705 5704 5704 5702 5700 5699 5698 5697 5696 5695 5694 5694 5694
5741 5739 5737 5736 5735 5732 5730 5728 5727 5727 5725 5723 5720 5718 5716 5716 5716 5715 5714 5714 5713 5711 5710 5708 5707 5706 5706 5705 5704 5703 5702 5701 5700 5699 5697 5696 5694 5692 5691 5690 5689 5689 5687
5732 5731 5728 5727 5726 5725 5723 5723 5722 5721 5720 5718 5715 5714 5713 5713 5712 5711 5710 5709 5708 5707 5706 5704 5702 5702 5701 5700 5699 5698 5697 5696 5695 5694 5693 5692 5690 5688 5687 5686 5684 5683 5681
5724 5723 5722 5720 5719 5717 5717 5716 5715 5715 5715 5712 5710 5710 5709 5708 5706 5705 5704 5703 5702 5701 5699 5697 5696 5695 5696 5694 5693 5692 5691 5691 5689 5689 5688 5687 5685 5683 5681 5680 5679 5677 5676
5717 5715 5713 5711 5710 5710 5711 5710 5709 5710 5708 5706 5705 5705 5704 5702 5701 5700 5698 5696 5695 5694 5692 5691 5690 5689 5688 5686 5685 5684 5684 5684 5684 5683 5682 5682 5681 5678 5676 5674 5673 5672 5672
5709 5707 5706 5703 5704 5704 5705 5704 5703 5702 5701 5699 5699 5698 5698 5696 5695 5693 5691 5690 5689 5687 5686 5685 5684 5682 5681 5679 5678 5677 5677 5678 5678 5677 5677 5675 5673 5672 5669 5669 5667 5666 5666
5702 5700 5699 5698 5696 5696 5697 5695 5694 5693 5692 5691 5691 5691 5691 5689 5688 5686 5685 5684 5682 5681 5680 5680 5679 5677 5674 5672 5670 5668 5670 5670 5671 5671 5670 5668 5666 5664 5662 5662 5660 5660 5660
5695 5693 5691 5690 5687 5687 5688 5686 5685 5685 5683 5683 5683 5683 5683 5682 5680 5679 5679 5677 5676 5675 5675 5674 5673 5672 5669 5665 5663 5661 5662 5662 5663 5663 5662 5661 5660 5658 5656 5655 5654 5653 5654
5687 5686 5682 5680 5679 5679 5678 5677 5676 5675 5676 5676 5676 5675 5675 5674 5673 5672 5671 5670 5669 5669 5668 5667 5666 5665 5663 5659 5656 5654 5654 5655 5655 5656 5656 5655 5653 5651 5649 5648 5648 5648 5648
5677 5676 5673 5671 5672 5672 5670 5668 5667 5668 5668 5668 5667 5666 5666 5666 5667 5665 5664 5663 5663 5661 5661 5659 5658 5658 5656 5653 5650 5648 5647 5647 5647 5648 5649 5648 5646 5645 5643 5642 5643 5642 5642
5667 5667 5666 5664 5664 5663 5662 5660 5660 5660 5660 5659 5658 5657 5658 5658 5659 5657 5656 5656 5656 5655 5654 5653 5652 5651 5649 5647 5644 5642 5641 5639 5639 5640 5639 5639 5638 5638 5638 5638 5638 5637 5636
5658 5658 5656 5655 5654 5654 5654 5653 5653 5653 5652 5651 5650 5650 5650 5651 5651 5651 5650 5649 5648 5647 5647 5646 5645 5644 5642 5639 5637 5636 5634 5632 5631 5631 5631 5631 5631 5631 5632 5632 5632 5633 5633
5649 5648 5647 5646 5646 5647 5647 5647 5646 5646 5644 5643 5642 5643 5644 5644 5644 5644 5643 5642 5641 5641 5639 5639 5638 5636 5634 5631 5629 5627 5627 5626 5625 5623 5624 5625 5625 5625 5626 5627 5627 5628 5627
5640 5639 5639 5639 5639 5639 5639 5639 5639 5638 5637 5636 5635 5637 5638 5638 5638 5638 5637 5635 5635 5634 5633 5632 5630 5629 5626 5625 5624 5622 5620 5619 5618 5617 5619 5620 5620 5621 5621 5621 5621 5622 5622